Weather History for Mackinac Island, MI

Change the Weather History Date:

Tuesday, April 1, 2014

  Actual Average Record
Temperature  
Mean Temperature 34 °F -  
Max Temperature 44 °F 38 °F 59 °F (1999)
Min Temperature 25 °F 24 °F 14 °F (1975)
Degree Days  
Heating Degree Days 30    
Moisture  
Dew Point 30 °F    
Average Humidity 86    
Maximum Humidity 96    
Minimum Humidity 60    
Precipitation  
Precipitation 0.01 in - - ()
Sea Level Pressure  
Sea Level Pressure 29.73 in    
Wind  
Wind Speed 12 mph (South)    
Max Wind Speed 23 mph    
Max Gust Speed 36 mph    
Visibility 8 miles    
Events Rain , Snow    
Averages and records for this station are not official NWS values.
T = Trace of Precipitation, MM = Missing Value Source: NWS Daily Summary

Daily Weather History Graph

Daily Weather History Graph

Search for Another Location

Airport:

Trip Planner

Search our weather history database for the weather conditions in past years. The results will help you decide how hot, cold, wet, or windy it might be!

Date:

Astronomy

Apr. 01, 2014 Rise Set
Actual Time 7:18 AM EDT 8:07 PM EDT
Civil Twilight 6:48 AM EDT 8:37 PM EDT
Nautical Twilight 6:12 AM EDT 9:13 PM EDT
Astronomical Twilight 5:35 AM EDT 9:50 PM EDT
Moon 8:14 AM EDT (4/1) 10:36 PM EDT (4/1)
Length of Visible Light 13h 48m
Length of Day
12h 48m
Waxing Crescent, 4% of the Moon is Illuminated
Apr 1
Waxing Crescent
Apr 7
First Quarter
Apr 15
Full
Apr 22
Last Quarter
Apr 29
New

Hourly Weather History & Observations

Time (EDT) Temp. Windchill Dew Point Humidity Pressure Visibility Wind Dir Wind Speed Gust Speed Precip Events Conditions
12:16 AM 34.7 °F 25.1 °F 30.0 °F 83% 29.85 in 10.0 mi East 15.0 mph 20.7 mph N/A   Overcast
12:36 AM 34.7 °F 25.9 °F 30.2 °F 84% 29.85 in 10.0 mi East 12.7 mph 18.4 mph N/A   Overcast
12:56 AM 34.9 °F 24.9 °F 30.2 °F 83% 29.83 in 10.0 mi East 16.1 mph 23.0 mph N/A   Overcast
1:16 AM 34.7 °F 28.1 °F 30.6 °F 85% 29.84 in 10.0 mi ESE 8.1 mph 20.7 mph N/A   Mostly Cloudy
1:36 AM 35.8 °F 28.3 °F 30.6 °F 81% 29.85 in 10.0 mi SE 10.4 mph 17.3 mph N/A   Overcast
1:56 AM 34.5 °F 29.4 °F 30.9 °F 87% 29.85 in 10.0 mi East 5.8 mph - N/A   Overcast
2:15 AM 34.5 °F 29.4 °F 31.1 °F 87% 29.85 in 10.0 mi East 5.8 mph - N/A   Overcast
2:36 AM 35.4 °F 29.7 °F 30.7 °F 83% 29.84 in 10.0 mi ESE 6.9 mph - N/A   Overcast
2:56 AM 36.1 °F 29.3 °F 30.6 °F 80% 29.84 in 10.0 mi SE 9.2 mph - N/A   Overcast
3:15 AM 41.7 °F 35.6 °F 30.0 °F 63% 29.83 in 10.0 mi SE 10.4 mph 18.4 mph N/A   Overcast
3:36 AM 41.9 °F 36.3 °F 29.7 °F 62% 29.82 in 10.0 mi SE 9.2 mph 16.1 mph N/A   Overcast
3:56 AM 42.4 °F 37.5 °F 29.3 °F 60% 29.80 in 10.0 mi SE 8.1 mph 16.1 mph N/A   Overcast
4:16 AM 35.6 °F 28.6 °F 30.9 °F 83% 29.79 in 10.0 mi SE 9.2 mph 17.3 mph N/A Rain Light Rain
4:36 AM 34.5 °F 28.6 °F 31.1 °F 87% 29.78 in 10.0 mi East 6.9 mph - N/A Snow Light Snow
4:56 AM 33.8 °F 26.4 °F 31.6 °F 92% 29.76 in 7.0 mi East 9.2 mph - 0.01 in Snow Light Snow
5:16 AM 33.8 °F 27.0 °F 32.0 °F 93% 29.75 in 10.0 mi East 8.1 mph - N/A Snow Light Snow
5:36 AM 33.8 °F 25.8 °F 31.8 °F 92% 29.73 in 10.0 mi East 10.4 mph - N/A   Overcast
5:56 AM 34.2 °F 25.2 °F 31.6 °F 90% 29.71 in 10.0 mi East 12.7 mph 16.1 mph N/A   Overcast
6:16 AM 34.7 °F 26.4 °F 31.6 °F 89% 29.70 in 10.0 mi East 11.5 mph 17.3 mph N/A   Overcast
6:36 AM 35.4 °F 27.8 °F 31.8 °F 87% 29.69 in 10.0 mi ESE 10.4 mph 18.4 mph N/A   Overcast
6:56 AM 34.9 °F 26.6 °F 32.0 °F 89% 29.68 in 10.0 mi East 11.5 mph 18.4 mph N/A   Overcast
7:16 AM 34.7 °F 26.9 °F 32.0 °F 90% 29.68 in 10.0 mi East 10.4 mph 17.3 mph N/A   Overcast
7:36 AM 34.3 °F 26.5 °F 32.0 °F 91% 29.67 in 10.0 mi East 10.4 mph 19.6 mph N/A   Overcast
7:56 AM 34.9 °F 26.6 °F 32.0 °F 89% 29.66 in 10.0 mi East 11.5 mph 18.4 mph N/A   Overcast
8:16 AM 34.9 °F 26.6 °F 32.0 °F 89% 29.66 in 10.0 mi East 11.5 mph 18.4 mph N/A   Overcast
8:36 AM 35.1 °F 29.3 °F 32.0 °F 89% 29.65 in 10.0 mi East 6.9 mph - N/A   Overcast
8:56 AM 34.3 °F 27.0 °F 32.4 °F 92% 29.64 in 7.0 mi East 9.2 mph - N/A   Overcast
9:16 AM 34.0 °F 27.2 °F 32.9 °F 96% 29.63 in 10.0 mi East 8.1 mph - N/A   Overcast
9:36 AM 34.2 °F 26.8 °F 33.1 °F 96% 29.63 in 10.0 mi East 9.2 mph - N/A   Overcast
9:56 AM 34.9 °F 28.3 °F 33.4 °F 94% 29.61 in 10.0 mi ESE 8.1 mph - N/A   Overcast
10:16 AM 35.6 °F 29.2 °F 33.6 °F 92% 29.61 in 10.0 mi ESE 8.1 mph - N/A   Overcast
10:36 AM 37.9 °F 31.5 °F 34.7 °F 88% 29.60 in 10.0 mi SE 9.2 mph - N/A   Overcast
10:56 AM 42.1 °F 36.6 °F 35.6 °F 78% 29.59 in 10.0 mi SSE 9.2 mph - N/A   Overcast
11:16 AM 43.2 °F 36.6 °F 35.6 °F 75% 29.59 in 10.0 mi SSE 12.7 mph 18.4 mph N/A   Overcast
11:36 AM 43.9 °F 38.8 °F 35.6 °F 73% 29.59 in 10.0 mi SSE 9.2 mph - N/A   Overcast
11:56 AM 44.1 °F 40.1 °F 35.6 °F 72% 29.58 in 10.0 mi SSE 6.9 mph 16.1 mph N/A   Overcast
12:17 PM 44.4 °F 41.2 °F 35.6 °F 71% 29.58 in 10.0 mi SSE 5.8 mph - N/A   Overcast
12:36 PM 41.7 °F 34.8 °F 33.3 °F 72% 29.60 in 10.0 mi WSW 12.7 mph 19.6 mph N/A   Overcast
12:56 PM 35.2 °F 26.2 °F 30.7 °F 84% 29.61 in 10.0 mi WSW 13.8 mph 26.5 mph N/A   Overcast
1:17 PM 34.2 °F 22.6 °F 30.4 °F 86% 29.62 in 10.0 mi WSW 20.7 mph 28.8 mph N/A   Overcast
1:36 PM 32.9 °F 22.4 °F 31.1 °F 93% 29.63 in 5.0 mi WSW 16.1 mph 27.6 mph N/A   Overcast
1:56 PM 32.7 °F 22.5 °F 30.7 °F 92% 29.63 in 10.0 mi WSW 15.0 mph 26.5 mph N/A   Overcast
2:16 PM 32.9 °F 21.3 °F 30.2 °F 90% 29.63 in 10.0 mi WSW 19.6 mph 28.8 mph N/A   Overcast
2:36 PM 32.4 °F 21.3 °F 29.3 °F 88% 29.65 in 10.0 mi WSW 17.3 mph 28.8 mph N/A   Overcast
2:56 PM 32.0 °F 19.2 °F 29.1 °F 89% 29.65 in 10.0 mi WSW 23.0 mph 32.2 mph N/A   Overcast
3:16 PM 32.0 °F 19.8 °F 28.0 °F 85% 29.65 in 10.0 mi WSW 20.7 mph 34.5 mph N/A   Overcast
3:36 PM 31.8 °F 19.9 °F 28.4 °F 87% 29.66 in 7.0 mi WSW 19.6 mph 33.4 mph N/A   Overcast
3:57 PM 31.1 °F 18.6 °F 28.8 °F 91% 29.68 in 2.5 mi WSW 20.7 mph 27.6 mph N/A Snow Light Snow
4:16 PM 30.7 °F 18.5 °F 28.4 °F 91% 29.68 in 1.0 mi WSW 19.6 mph 28.8 mph N/A Snow Light Snow
4:37 PM 30.4 °F 17.3 °F 28.8 °F 94% 29.68 in 1.0 mi SW 21.9 mph 33.4 mph N/A Snow Light Snow
4:56 PM 30.2 °F 18.5 °F 28.2 °F 92% 29.68 in 1.2 mi SW 17.3 mph 29.9 mph N/A Snow Light Snow
5:16 PM 30.7 °F 18.5 °F 27.1 °F 86% 29.69 in 3.0 mi SW 19.6 mph 32.2 mph N/A Snow Light Snow
5:37 PM 30.6 °F 18.6 °F 27.0 °F 86% 29.70 in 3.0 mi SW 18.4 mph 28.8 mph N/A   Overcast
5:56 PM 30.7 °F 19.6 °F 27.1 °F 86% 29.70 in 7.0 mi SW 16.1 mph 29.9 mph N/A   Overcast
6:16 PM 30.7 °F 19.2 °F 27.3 °F 87% 29.71 in 4.0 mi SW 17.3 mph 35.7 mph N/A   Overcast
6:37 PM 30.9 °F 18.7 °F 27.9 °F 88% 29.72 in 4.0 mi SW 19.6 mph 29.9 mph N/A   Overcast
6:56 PM 30.9 °F 18.7 °F 28.4 °F 90% 29.73 in 7.0 mi WSW 19.6 mph 29.9 mph N/A   Overcast
7:16 PM 30.9 °F 18.7 °F 28.4 °F 90% 29.74 in 3.0 mi WSW 19.6 mph 33.4 mph N/A   Overcast
7:37 PM 30.7 °F 18.5 °F 28.9 °F 93% 29.75 in 3.0 mi WSW 19.6 mph 35.7 mph N/A   Overcast
7:56 PM 30.6 °F 17.9 °F 28.4 °F 92% 29.76 in 1.8 mi WSW 20.7 mph 29.9 mph N/A   Overcast
8:16 PM 30.2 °F 18.1 °F 28.0 °F 92% 29.77 in 2.5 mi WSW 18.4 mph 29.9 mph N/A   Overcast
8:37 PM 30.2 °F 19.8 °F 28.0 °F 92% 29.78 in 4.0 mi WSW 13.8 mph 27.6 mph N/A   Overcast
8:56 PM 30.6 °F 19.4 °F 28.2 °F 91% 29.79 in 4.0 mi WSW 16.1 mph 27.6 mph N/A   Overcast
9:17 PM 30.7 °F 20.0 °F 28.0 °F 90% 29.80 in 4.0 mi WSW 15.0 mph 25.3 mph N/A   Overcast
9:36 PM 29.5 °F 18.8 °F 28.0 °F 94% 29.82 in 3.0 mi NNW 13.8 mph 23.0 mph N/A Snow Light Snow
9:56 PM 27.1 °F 15.4 °F 25.5 °F 94% 29.84 in 10.0 mi NW 15.0 mph 19.6 mph N/A   Overcast
10:17 PM 26.2 °F 14.2 °F 23.2 °F 88% 29.87 in 10.0 mi WNW 15.0 mph 24.2 mph N/A   Overcast
10:36 PM 25.5 °F 12.9 °F 21.7 °F 86% 29.88 in 10.0 mi WNW 16.1 mph 20.7 mph N/A   Overcast
10:56 PM 25.3 °F 16.0 °F 21.2 °F 84% 29.89 in 10.0 mi WNW 9.2 mph 20.7 mph N/A   Overcast
11:17 PM 25.3 °F 14.7 °F 21.2 °F 84% 29.89 in 10.0 mi West 11.5 mph 16.1 mph N/A   Overcast
11:36 PM 25.3 °F 15.3 °F 19.4 °F 78% 29.90 in 10.0 mi WNW 10.4 mph 20.7 mph N/A   Overcast
11:56 PM 25.3 °F 12.2 °F 19.0 °F 77% 29.91 in 10.0 mi WNW 17.3 mph 26.5 mph N/A   Overcast